#�ϑ�����,���ϕ���,���ϕ���,�ő啗��,�ő啗����������,�ő�u�ԕ���,�ő�u�ԕ�����������
#(�N����),(m/s)   ,(16����),(m/s)   ,(16����)        ,(m/s)       ,(16����)            
2017/1/14 0:01,2.5,11,2.6,11,1.5,15
2017/1/14 0:02,2.4,11,2.5,11,3.7,10
2017/1/14 0:03,2.1,11,2.3,11,2,11
2017/1/14 0:04,2.2,11,2.2,11,6.9,11
2017/1/14 0:05,2.4,11,2.4,11,6.4,13
2017/1/14 0:06,2.4,12,2.4,11,4.8,11
2017/1/14 0:07,2.4,12,2.4,11,3.9,15
2017/1/14 0:08,2.4,13,2.4,11,4.4,1
2017/1/14 0:09,2.2,13,2.4,11,4.7,16
2017/1/14 0:10,2.2,14,2.2,11,2.7,2
2017/1/14 0:11,2.4,14,2.4,11,3.5,16
2017/1/14 0:12,2.4,15,2.4,11,3.1,16
2017/1/14 0:13,2.4,15,2.4,11,1.5,7
2017/1/14 0:14,2.1,15,2.4,11,1.5,8
2017/1/14 0:15,1.7,16,2.1,11,1.1,12
2017/1/14 0:16,1.6,16,1.7,12,1.9,14
2017/1/14 0:17,1.6,1,1.6,13,2.5,9
2017/1/14 0:18,1.4,2,1.5,13,2.5,5
2017/1/14 0:19,1.2,3,1.3,14,3.6,9
2017/1/14 0:20,1.2,4,1.2,14,3.2,10
2017/1/14 0:21,1.2,8,1.2,14,4.7,10
2017/1/14 0:22,1.3,8,1.3,15,5.1,10
2017/1/14 0:23,1.4,9,1.4,15,4.1,13
2017/1/14 0:24,1.5,10,1.5,15,5.4,16
2017/1/14 0:25,1.6,11,1.6,16,3.1,13
2017/1/14 0:26,1.8,11,1.8,11,5.7,10
2017/1/14 0:27,1.9,11,1.9,11,5.1,15
2017/1/14 0:28,2.1,12,2.1,12,5,14
2017/1/14 0:29,2.1,13,2.1,12,2.6,1
2017/1/14 0:30,2,13,2.1,12,1.8,16
2017/1/14 0:31,1.9,13,2,12,1.8,10
2017/1/14 0:32,1.7,13,1.8,12,1.5,9
2017/1/14 0:33,1.7,13,1.7,12,3.5,9
2017/1/14 0:34,1.6,12,1.7,12,4.7,9
2017/1/14 0:35,1.7,12,1.7,12,4.1,10
2017/1/14 0:36,1.7,12,1.7,12,3.3,13
2017/1/14 0:37,1.7,12,1.7,12,4.1,11
2017/1/14 0:38,1.6,12,1.7,12,4.3,11
2017/1/14 0:39,1.8,12,1.8,13,7.1,15
2017/1/14 0:40,2.1,12,2.1,12,6.5,16
2017/1/14 0:41,2.3,12,2.3,12,5.5,15
2017/1/14 0:42,2.4,12,2.4,12,3.6,12
2017/1/14 0:43,2.4,12,2.4,12,5.8,11
2017/1/14 0:44,2.7,12,2.7,12,7,12
2017/1/14 0:45,3,12,3,12,7.5,12
2017/1/14 0:46,3.1,13,3.1,12,5.4,13
2017/1/14 0:47,3.2,13,3.2,13,4.4,15
2017/1/14 0:48,3.4,13,3.4,13,7.1,11
2017/1/14 0:49,3.2,13,3.4,13,3.5,15
2017/1/14 0:50,3.1,13,3.2,13,4.7,12
2017/1/14 0:51,3,13,3.1,13,3.1,12
2017/1/14 0:52,3,13,3,13,2.5,10
2017/1/14 0:53,3,12,3,13,4.9,9
2017/1/14 0:54,3,12,3,13,6,9
2017/1/14 0:55,2.8,12,2.9,13,5.8,10
2017/1/14 0:56,2.7,11,2.8,13,6.7,9
2017/1/14 0:57,2.7,11,2.7,13,3.9,9
2017/1/14 0:58,2.5,10,2.6,13,4.7,9
2017/1/14 0:59,2.6,10,2.6,13,4.7,10
2017/1/14 1:00,2.5,10,2.6,13,3.7,10
2017/1/14 1:01,2.5,9,2.5,13,3.8,9
2017/1/14 1:02,2.7,10,2.7,13,5.2,11
2017/1/14 1:03,2.7,10,2.7,12,3.7,10
2017/1/14 1:04,2.6,10,2.8,12,3.9,10
2017/1/14 1:05,2.5,10,2.6,12,3.3,11
2017/1/14 1:06,2.3,10,2.5,10,3.3,10
2017/1/14 1:07,2.2,10,2.3,10,2.6,9
2017/1/14 1:08,2.1,10,2.2,10,2.6,10
2017/1/14 1:09,2.1,10,2.1,10,3.1,11
2017/1/14 1:10,2.1,10,2.1,10,3.3,9
2017/1/14 1:11,2.1,10,2.1,10,2.9,10
2017/1/14 1:12,1.9,10,2,10,3,10
2017/1/14 1:13,1.8,10,1.9,10,3.3,10
2017/1/14 1:14,1.8,10,1.8,10,3.2,10
2017/1/14 1:15,1.8,10,1.8,10,3.3,10
2017/1/14 1:16,1.9,10,1.9,10,3.9,9
2017/1/14 1:17,1.9,10,1.9,10,3,10
2017/1/14 1:18,2,10,2,10,3.3,10
2017/1/14 1:19,2,10,2,10,2.7,11
2017/1/14 1:20,2,10,2,10,2.1,12
2017/1/14 1:21,2,11,2,10,2.7,12
2017/1/14 1:22,2,11,2,10,2.7,11
2017/1/14 1:23,1.9,11,2,10,2.2,11
2017/1/14 1:24,1.8,11,1.9,10,2,8
2017/1/14 1:25,1.7,11,1.8,10,2.4,11
2017/1/14 1:26,1.6,11,1.7,10,1.1,10
2017/1/14 1:27,1.4,11,1.6,10,0.4,14
2017/1/14 1:28,1.3,11,1.3,10,3,13
2017/1/14 1:29,1.2,12,1.3,10,2.4,13
2017/1/14 1:30,1.1,12,1.2,10,1.3,10
2017/1/14 1:31,1.1,12,1.1,11,2,11
2017/1/14 1:32,1,11,1.1,11,1.6,11
2017/1/14 1:33,0.9,11,0.9,11,0.9,7
2017/1/14 1:34,0.8,11,0.8,11,1.5,10
2017/1/14 1:35,0.8,12,0.8,11,2,14
2017/1/14 1:36,0.8,11,0.8,11,2.6,9
2017/1/14 1:37,1,11,1,11,3.7,10
2017/1/14 1:38,1.1,11,1.1,11,3.7,9
2017/1/14 1:39,1.2,11,1.2,12,4.2,11
2017/1/14 1:40,1.4,11,1.4,11,3.6,9
2017/1/14 1:41,1.5,10,1.5,11,3.5,10
2017/1/14 1:42,1.6,10,1.6,10,3.6,9
2017/1/14 1:43,1.8,10,1.8,10,3.2,10
2017/1/14 1:44,1.9,10,1.9,10,3.3,8
2017/1/14 1:45,2.1,10,2.1,10,4.7,10
2017/1/14 1:46,2.3,10,2.3,10,5.6,10
2017/1/14 1:47,2.5,10,2.5,10,7.2,10
2017/1/14 1:48,2.8,10,2.8,10,7.5,10
2017/1/14 1:49,2.9,10,2.9,10,6.5,9
2017/1/14 1:50,2.9,10,2.9,10,4.5,9
2017/1/14 1:51,2.9,11,2.9,10,3.1,9
2017/1/14 1:52,2.8,11,2.9,10,3,12
2017/1/14 1:53,2.8,11,2.8,10,3.2,9
2017/1/14 1:54,2.7,11,2.8,10,2.1,10
2017/1/14 1:55,2.7,11,2.7,10,3.7,12
2017/1/14 1:56,2.6,11,2.7,10,3.9,12
2017/1/14 1:57,2.4,12,2.6,10,3.7,13
2017/1/14 1:58,2.1,12,2.4,10,2.2,12
2017/1/14 1:59,1.8,12,2.1,10,1.4,14
2017/1/14 2:00,1.7,12,1.8,10,3,14
2017/1/14 2:01,1.7,12,1.7,10,3.7,13
2017/1/14 2:02,1.7,12,1.7,11,3.2,13
2017/1/14 2:03,1.7,12,1.8,11,3,13
2017/1/14 2:04,1.9,12,1.9,11,3.5,12
2017/1/14 2:05,1.8,12,1.9,11,3.1,13
2017/1/14 2:06,1.6,12,1.8,11,1.9,11
2017/1/14 2:07,1.4,12,1.6,12,1.5,12
2017/1/14 2:08,1.4,12,1.4,12,2.4,10
2017/1/14 2:09,1.4,12,1.4,12,2.1,10
2017/1/14 2:10,1.4,12,1.4,12,3,10
2017/1/14 2:11,1.3,12,1.4,12,2.6,10
2017/1/14 2:12,1.3,11,1.3,12,2.4,10
2017/1/14 2:13,1.2,11,1.3,12,2.5,12
2017/1/14 2:14,1.2,11,1.3,13,2.9,12
2017/1/14 2:15,1.2,11,1.2,12,2.2,9
2017/1/14 2:16,1.2,11,1.2,12,1.6,8
2017/1/14 2:17,1.4,11,1.4,12,3.8,10
2017/1/14 2:18,1.5,11,1.5,11,3.1,9
2017/1/14 2:19,1.6,10,1.6,10,3.9,10
2017/1/14 2:20,1.7,10,1.7,10,3.7,10
2017/1/14 2:21,1.8,10,1.8,10,3,10
2017/1/14 2:22,1.9,10,1.9,10,3,11
2017/1/14 2:23,1.9,10,1.9,10,3.5,9
2017/1/14 2:24,2,10,2,10,3.8,10
2017/1/14 2:25,2.1,10,2.1,10,4.4,10
2017/1/14 2:26,2.3,10,2.3,10,3.7,9
2017/1/14 2:27,2.3,10,2.3,10,4.1,10
2017/1/14 2:28,2.3,10,2.3,10,3.2,9
2017/1/14 2:29,2.3,10,2.4,10,3.1,10
2017/1/14 2:30,2.2,10,2.3,10,2.2,9
2017/1/14 2:31,2.2,10,2.2,10,2.9,10
2017/1/14 2:32,2.1,10,2.2,10,2.6,10
2017/1/14 2:33,2,10,2.1,10,1.8,9
2017/1/14 2:34,1.9,9,2,10,1.8,9
2017/1/14 2:35,1.7,10,1.8,10,1.5,10
2017/1/14 2:36,1.5,10,1.7,10,1.6,11
2017/1/14 2:37,1.3,10,1.5,10,1.9,12
2017/1/14 2:38,1.3,10,1.3,10,3.6,9
2017/1/14 2:39,1.5,10,1.5,10,4.9,9
2017/1/14 2:40,1.7,10,1.7,10,5.1,10
2017/1/14 2:41,1.7,10,1.7,10,3.3,12
2017/1/14 2:42,1.7,10,1.7,10,2.5,12
2017/1/14 2:43,1.7,10,1.7,10,1.6,10
2017/1/14 2:44,1.7,10,1.7,9,1.6,9
2017/1/14 2:45,1.7,10,1.7,10,2,11
2017/1/14 2:46,1.7,10,1.7,10,2.1,11
2017/1/14 2:47,1.9,11,1.9,11,3.2,12
2017/1/14 2:48,1.8,11,1.9,11,2.4,12
2017/1/14 2:49,1.5,11,1.8,11,1.3,10
2017/1/14 2:50,1.2,11,1.5,11,1.5,9
2017/1/14 2:51,1.1,11,1.2,11,2.4,11
2017/1/14 2:52,1.1,11,1.1,11,2.2,12
2017/1/14 2:53,1.2,11,1.2,11,3,11
2017/1/14 2:54,1.2,11,1.2,11,2.5,9
2017/1/14 2:55,1.3,11,1.3,11,2.7,11
2017/1/14 2:56,1.3,11,1.4,11,2.5,9
2017/1/14 2:57,1.2,11,1.3,11,1.6,12
2017/1/14 2:58,1.2,11,1.2,11,2.1,9
2017/1/14 2:59,1.4,11,1.4,11,3,9
2017/1/14 3:00,1.5,10,1.5,10,3.5,10
2017/1/14 3:01,1.5,10,1.6,10,3.8,9
2017/1/14 3:02,1.6,10,1.6,10,3.2,9
2017/1/14 3:03,1.6,10,1.6,10,2.7,10
2017/1/14 3:04,1.6,10,1.7,10,3.9,10
2017/1/14 3:05,1.5,10,1.6,10,1.9,10
2017/1/14 3:06,1.5,10,1.5,10,1.6,12
2017/1/14 3:07,1.4,10,1.5,10,1.9,9
2017/1/14 3:08,1.4,10,1.4,10,3.2,10
2017/1/14 3:09,1.4,10,1.4,10,3.1,10
2017/1/14 3:10,1.4,10,1.4,10,3.5,10
2017/1/14 3:11,1.3,10,1.3,10,2.7,10
2017/1/14 3:12,1.3,10,1.3,10,3.2,10
2017/1/14 3:13,1.3,10,1.3,10,3.5,11
2017/1/14 3:14,1.3,10,1.3,10,2.9,11
2017/1/14 3:15,1.5,10,1.5,10,2.7,10
2017/1/14 3:16,1.5,10,1.5,10,2.2,10
2017/1/14 3:17,1.6,10,1.6,10,1.8,11
2017/1/14 3:18,1.6,10,1.6,10,3.5,10
2017/1/14 3:19,1.7,10,1.7,10,2.2,11
2017/1/14 3:20,1.6,10,1.7,10,2.1,8
2017/1/14 3:21,1.6,10,1.6,10,1.9,9
2017/1/14 3:22,1.6,10,1.6,10,2,10
2017/1/14 3:23,1.4,10,1.6,10,1.6,8
2017/1/14 3:24,1.2,10,1.4,10,0.9,9
2017/1/14 3:25,1.1,10,1.2,10,1.6,10
2017/1/14 3:26,1.1,10,1.1,10,1.4,10
2017/1/14 3:27,1.1,10,1.1,10,2,10
2017/1/14 3:28,1,10,1.1,10,2.7,10
2017/1/14 3:29,1.1,10,1.1,10,3.8,11
2017/1/14 3:30,1.2,10,1.2,10,3.2,11
2017/1/14 3:31,1.3,10,1.3,10,2.5,12
2017/1/14 3:32,1.3,11,1.3,10,2.2,11
2017/1/14 3:33,1.5,11,1.5,11,2.6,9
2017/1/14 3:34,1.5,11,1.5,11,2.2,9
2017/1/14 3:35,1.6,11,1.6,11,3.2,9
2017/1/14 3:36,1.8,10,1.8,10,5.5,9
2017/1/14 3:37,2.1,10,2.1,10,5.5,10
2017/1/14 3:38,2.1,10,2.1,10,4.8,9
2017/1/14 3:39,2.1,10,2.2,10,3.6,9
2017/1/14 3:40,2,10,2.1,10,3,10
2017/1/14 3:41,2,10,2,10,2,10
2017/1/14 3:42,1.9,10,2,10,2,9
2017/1/14 3:43,1.9,10,1.9,10,1.9,12
2017/1/14 3:44,1.9,10,1.9,10,2.7,9
2017/1/14 3:45,1.8,10,1.9,10,2.9,10
2017/1/14 3:46,1.8,10,1.9,10,2.9,9
2017/1/14 3:47,1.6,10,1.8,10,2.6,10
2017/1/14 3:48,1.5,10,1.6,10,3.1,10
2017/1/14 3:49,1.5,10,1.5,10,3.1,10
2017/1/14 3:50,1.5,10,1.5,10,2.7,9
2017/1/14 3:51,1.5,10,1.5,10,2.1,9
2017/1/14 3:52,1.5,10,1.5,10,1.4,10
2017/1/14 3:53,1.5,10,1.5,10,2.1,11
2017/1/14 3:54,1.5,10,1.5,10,1.8,10
2017/1/14 3:55,1.4,10,1.5,10,1.8,11
2017/1/14 3:56,1.4,10,1.4,10,2.2,10
2017/1/14 3:57,1.4,10,1.4,10,2,12
2017/1/14 3:58,1.2,10,1.4,10,1,14
2017/1/14 3:59,1.1,10,1.2,10,1.5,10
2017/1/14 4:00,1,10,1.1,10,2.1,8
2017/1/14 4:01,0.9,11,1,10,0.8,10
2017/1/14 4:02,1,11,1,10,3.1,10
2017/1/14 4:03,1,11,1,10,2.5,11
2017/1/14 4:04,1.2,11,1.2,10,3.2,9
2017/1/14 4:05,1.2,11,1.2,10,1.9,11
2017/1/14 4:06,1.1,11,1.2,10,2.4,10
2017/1/14 4:07,1.1,10,1.1,10,2.5,9
2017/1/14 4:08,1.2,11,1.2,10,2.6,10
2017/1/14 4:09,1.4,11,1.4,11,2.7,11
2017/1/14 4:10,1.4,11,1.4,11,2.5,11
2017/1/14 4:11,1.5,11,1.5,11,1.8,12
2017/1/14 4:12,1.4,11,1.5,11,1.8,12
2017/1/14 4:13,1.3,11,1.4,11,1.9,14
2017/1/14 4:14,1.2,11,1.3,11,1.9,12
2017/1/14 4:15,1.3,11,1.3,11,2.4,12
2017/1/14 4:16,1.4,12,1.4,11,2.4,13
2017/1/14 4:17,1.4,12,1.4,11,2.1,12
2017/1/14 4:18,1.5,12,1.5,11,3.2,9
2017/1/14 4:19,1.5,12,1.5,11,2.9,10
2017/1/14 4:20,1.5,11,1.5,11,2.9,10
2017/1/14 4:21,1.5,11,1.5,11,1.9,9
2017/1/14 4:22,1.6,11,1.6,11,3,12
2017/1/14 4:23,1.7,11,1.7,11,3.3,13
2017/1/14 4:24,1.8,11,1.8,11,2.1,11
2017/1/14 4:25,1.7,11,1.8,11,2,10
2017/1/14 4:26,1.7,10,1.7,11,2.1,12
2017/1/14 4:27,1.7,10,1.7,11,2.1,12
2017/1/14 4:28,1.5,11,1.7,11,1.4,10
2017/1/14 4:29,1.4,11,1.5,11,1.3,10
2017/1/14 4:30,1.3,11,1.4,11,1.5,9
2017/1/14 4:31,1.2,11,1.3,11,1,10
2017/1/14 4:32,1.1,11,1.2,11,1.3,9
2017/1/14 4:33,0.9,11,1.1,11,2.5,9
2017/1/14 4:34,0.9,10,0.9,11,3,10
2017/1/14 4:35,0.9,10,0.9,11,2.7,10
2017/1/14 4:36,0.9,10,0.9,10,1.5,10
2017/1/14 4:37,0.8,10,0.9,10,2.9,9
2017/1/14 4:38,0.9,10,0.9,11,2.5,10
2017/1/14 4:39,1,10,1,11,2.5,9
2017/1/14 4:40,1,10,1,11,2.1,10
2017/1/14 4:41,1,10,1,11,0.8,9
2017/1/14 4:42,1.1,10,1.1,11,2.7,8
2017/1/14 4:43,1.2,10,1.2,10,2.5,10
2017/1/14 4:44,1.1,10,1.2,10,1.9,10
2017/1/14 4:45,1,10,1.1,10,0.8,10
2017/1/14 4:46,1,10,1,10,0.9,10
2017/1/14 4:47,0.9,10,1,10,2.2,10
2017/1/14 4:48,0.9,10,0.9,10,1.4,9
2017/1/14 4:49,0.8,10,0.8,10,1.1,10
2017/1/14 4:50,0.8,10,0.8,10,1.8,10
2017/1/14 4:51,0.8,10,0.8,10,1.1,10
2017/1/14 4:52,0.7,10,0.8,10,0.9,10
2017/1/14 4:53,0.6,10,0.7,10,1.8,9
2017/1/14 4:54,0.7,10,0.7,10,1.6,10
2017/1/14 4:55,0.8,10,0.8,10,2.5,9
2017/1/14 4:56,0.9,10,0.9,10,3,9
2017/1/14 4:57,0.9,10,1,10,3.1,9
2017/1/14 4:58,1,9,1,10,2.7,10
2017/1/14 4:59,1.1,9,1.1,9,3.8,9
2017/1/14 5:00,1.2,9,1.2,9,2.5,9
2017/1/14 5:01,1.2,9,1.2,9,1.5,10
2017/1/14 5:02,1.3,9,1.3,9,2.1,9
2017/1/14 5:03,1.3,9,1.3,9,1.6,8
2017/1/14 5:04,1.3,9,1.3,9,2,10
2017/1/14 5:05,1.2,9,1.3,9,2.2,9
2017/1/14 5:06,1.2,9,1.2,9,2.7,10
2017/1/14 5:07,1.2,10,1.2,9,2.5,10
2017/1/14 5:08,1.3,10,1.3,9,2.9,10
2017/1/14 5:09,1.2,10,1.2,9,3,10
2017/1/14 5:10,1.3,10,1.3,9,3.1,9
2017/1/14 5:11,1.4,10,1.4,10,3,9
2017/1/14 5:12,1.5,10,1.5,10,5.5,9
2017/1/14 5:13,1.8,10,1.8,10,5.1,9
2017/1/14 5:14,1.9,10,1.9,10,5.4,8
2017/1/14 5:15,2.1,10,2.1,10,4.5,9
2017/1/14 5:16,2.2,10,2.2,10,3.8,8
2017/1/14 5:17,2.3,10,2.3,10,4.7,8
2017/1/14 5:18,2.4,10,2.4,10,4.7,10
2017/1/14 5:19,2.4,10,2.4,10,4.5,10
2017/1/14 5:20,2.4,10,2.4,10,5.1,9
2017/1/14 5:21,2.6,10,2.6,10,4.3,10
2017/1/14 5:22,2.5,10,2.6,10,3.5,10
2017/1/14 5:23,2.4,10,2.5,10,3.3,8
2017/1/14 5:24,2.4,10,2.4,10,3.9,9
2017/1/14 5:25,2.5,10,2.5,10,5.1,10
2017/1/14 5:26,2.6,10,2.6,10,5.4,10
2017/1/14 5:27,2.6,10,2.7,10,4.8,10
2017/1/14 5:28,2.6,10,2.7,10,2.6,9
2017/1/14 5:29,2.5,10,2.6,10,3.6,9
2017/1/14 5:30,2.3,10,2.5,10,1.8,12
2017/1/14 5:31,2.2,10,2.3,10,3.3,10
2017/1/14 5:32,2.2,10,2.2,10,3.5,10
2017/1/14 5:33,2.1,10,2.2,10,2.5,10
2017/1/14 5:34,2.1,10,2.1,10,4.8,12
2017/1/14 5:35,2.1,10,2.1,10,5.2,11
2017/1/14 5:36,1.9,10,2.1,10,2.9,11
2017/1/14 5:37,1.8,10,1.9,10,3.2,12
2017/1/14 5:38,1.8,10,1.8,10,5.2,9
2017/1/14 5:39,1.9,10,1.9,10,6.1,9
2017/1/14 5:40,2,11,2,10,3.1,10
2017/1/14 5:41,2,11,2,10,3.2,12
2017/1/14 5:42,1.9,11,2,10,1.9,13
2017/1/14 5:43,1.8,11,1.9,10,2,9
2017/1/14 5:44,1.7,11,1.8,10,2.9,9
2017/1/14 5:45,1.7,11,1.7,10,4.2,10
2017/1/14 5:46,1.7,11,1.7,11,3.7,11
2017/1/14 5:47,1.8,11,1.8,11,3.3,10
2017/1/14 5:48,1.7,11,1.8,11,2.9,11
2017/1/14 5:49,1.6,11,1.7,11,5.1,10
2017/1/14 5:50,1.7,10,1.7,11,4.7,10
2017/1/14 5:51,1.9,10,1.9,11,7.4,9
2017/1/14 5:52,2.1,10,2.1,10,4.9,10
2017/1/14 5:53,2.3,10,2.3,10,5.4,10
2017/1/14 5:54,2.5,10,2.5,10,6,11
2017/1/14 5:55,2.7,10,2.7,10,6.8,11
2017/1/14 5:56,2.8,10,2.8,10,5.7,9
2017/1/14 5:57,2.8,10,2.8,10,4.7,10
2017/1/14 5:58,3,9,3,9,4.9,9
2017/1/14 5:59,3.1,9,3.1,9,5.8,9
2017/1/14 6:00,3.1,10,3.1,9,4.7,10
2017/1/14 6:01,3.2,10,3.2,10,9.1,10
2017/1/14 6:02,3.2,10,3.2,10,7.2,9
2017/1/14 6:03,3.2,10,3.2,10,8.3,8
2017/1/14 6:04,3.3,9,3.4,10,7.6,8
2017/1/14 6:05,3.2,10,3.2,10,7.9,12
2017/1/14 6:06,3.5,10,3.5,10,9.7,10
2017/1/14 6:07,3.7,10,3.7,10,6.7,9
2017/1/14 6:08,3.6,10,3.7,10,4.5,9
2017/1/14 6:09,3.5,10,3.6,10,3.7,10
2017/1/14 6:10,3.5,10,3.5,10,5.4,10
2017/1/14 6:11,3.5,10,3.5,10,6.1,9
2017/1/14 6:12,3.5,10,3.6,10,5.8,10
2017/1/14 6:13,3.2,10,3.5,10,3.1,10
2017/1/14 6:14,3.1,10,3.2,10,3.6,9
2017/1/14 6:15,2.9,10,3.1,10,3,8
2017/1/14 6:16,2.7,10,2.9,10,5.4,9
2017/1/14 6:17,2.4,10,2.6,10,4.2,10
2017/1/14 6:18,2.4,10,2.4,10,5.1,10
2017/1/14 6:19,2.4,10,2.4,10,3.9,10
2017/1/14 6:20,2.3,10,2.4,10,3.2,10
2017/1/14 6:21,2.1,10,2.3,10,3.2,8
2017/1/14 6:22,2.1,10,2.1,10,4.2,10
2017/1/14 6:23,2.1,10,2.1,10,4.1,9
2017/1/14 6:24,2.1,10,2.1,10,4.3,9
2017/1/14 6:25,2.1,10,2.2,10,2,10
2017/1/14 6:26,1.9,10,2.1,10,3.3,8
2017/1/14 6:27,1.8,10,1.9,10,2.9,9
2017/1/14 6:28,1.7,10,1.8,10,3.3,12
2017/1/14 6:29,1.6,10,1.7,10,1.8,11
2017/1/14 6:30,1.9,10,1.9,10,11.8,12
2017/1/14 6:31,2.3,10,2.3,10,10.5,10
2017/1/14 6:32,2.4,10,2.4,10,4.7,10
2017/1/14 6:33,2.5,11,2.5,11,5.8,13
2017/1/14 6:34,2.5,11,2.5,11,6.7,9
2017/1/14 6:35,2.9,11,2.9,11,5.2,13
2017/1/14 6:36,3.1,11,3.1,11,6.5,12
2017/1/14 6:37,3.3,12,3.3,11,5.1,12
2017/1/14 6:38,3.4,12,3.4,12,4.1,12
2017/1/14 6:39,3.5,12,3.5,12,3.2,10
2017/1/14 6:40,3.3,11,3.6,12,2.9,8
2017/1/14 6:41,2.8,11,3.2,12,3.2,10
2017/1/14 6:42,2.7,11,2.8,12,3,10
2017/1/14 6:43,2.6,11,2.7,12,2.9,9
2017/1/14 6:44,2.4,11,2.5,12,2.6,9
2017/1/14 6:45,2.1,10,2.4,12,2.6,9
2017/1/14 6:46,1.9,10,2.1,12,2.4,10
2017/1/14 6:47,1.7,10,1.8,12,3,11
2017/1/14 6:48,1.7,10,1.7,12,3.5,10
2017/1/14 6:49,1.8,10,1.8,12,4.2,10
2017/1/14 6:50,1.9,10,1.9,12,3.7,11
2017/1/14 6:51,1.9,10,1.9,11,2.7,10
2017/1/14 6:52,1.8,10,1.9,11,2.1,12
2017/1/14 6:53,1.7,11,1.8,11,1.4,13
2017/1/14 6:54,1.7,11,1.7,11,1.6,10
2017/1/14 6:55,1.7,11,1.7,10,3.2,11
2017/1/14 6:56,1.6,11,1.7,10,2.4,12
2017/1/14 6:57,1.7,11,1.7,10,3.6,11
2017/1/14 6:58,1.6,11,1.7,10,3.7,11
2017/1/14 6:59,1.6,11,1.6,10,3.9,9
2017/1/14 7:00,1.6,11,1.6,10,3.2,8
2017/1/14 7:01,1.6,11,1.6,10,4.2,9
2017/1/14 7:02,1.7,11,1.7,10,3.6,11
2017/1/14 7:03,1.8,11,1.8,11,2.7,9
2017/1/14 7:04,1.9,11,1.9,11,3.1,10
2017/1/14 7:05,2,10,2,11,3.3,10
2017/1/14 7:06,2.1,10,2.1,10,3.7,10
2017/1/14 7:07,2,10,2.1,10,2.7,13
2017/1/14 7:08,1.9,11,2,10,1.5,13
2017/1/14 7:09,1.7,11,1.9,10,0.8,13
2017/1/14 7:10,1.6,11,1.7,10,2.2,10
2017/1/14 7:11,1.6,11,1.6,10,2.4,12
2017/1/14 7:12,1.5,11,1.5,10,2.7,10
2017/1/14 7:13,1.5,11,1.5,10,2.7,10
2017/1/14 7:14,1.4,11,1.5,10,2.5,9
2017/1/14 7:15,1.3,11,1.4,10,2.7,9
2017/1/14 7:16,1.3,11,1.3,10,3.5,11
2017/1/14 7:17,1.4,11,1.4,11,4.4,10
2017/1/14 7:18,1.5,10,1.5,11,3.9,10
2017/1/14 7:19,1.7,10,1.7,11,3.6,11
2017/1/14 7:20,1.8,10,1.8,10,3.9,10
2017/1/14 7:21,1.8,10,1.9,10,2.6,10
2017/1/14 7:22,1.8,10,1.9,10,3,10
2017/1/14 7:23,1.9,10,1.9,10,3,11
2017/1/14 7:24,1.9,10,1.9,10,3,10
2017/1/14 7:25,1.9,10,1.9,10,2.1,11
2017/1/14 7:26,1.9,10,2,10,3.2,10
2017/1/14 7:27,1.9,10,1.9,10,3.7,10
2017/1/14 7:28,1.8,10,1.9,10,3.1,11
2017/1/14 7:29,1.9,10,1.9,10,5.1,10
2017/1/14 7:30,2,10,2,10,4.9,10
2017/1/14 7:31,2.2,10,2.2,10,5.1,10
2017/1/14 7:32,2.3,10,2.3,10,4.5,12
2017/1/14 7:33,2.5,10,2.5,10,6,10
2017/1/14 7:34,2.6,10,2.6,10,5.8,9
2017/1/14 7:35,2.7,10,2.7,10,4.5,10
2017/1/14 7:36,2.9,10,2.9,10,6.2,10
2017/1/14 7:37,3.1,10,3.1,10,5.5,9
2017/1/14 7:38,3.2,10,3.2,10,6,10
2017/1/14 7:39,3.3,10,3.3,10,4.9,11
2017/1/14 7:40,3.2,10,3.3,10,6.4,9
2017/1/14 7:41,3.2,10,3.2,10,6.2,9
2017/1/14 7:42,3.2,10,3.3,10,5.6,9
2017/1/14 7:43,3.2,10,3.3,10,6.3,10
2017/1/14 7:44,3.3,10,3.3,10,5.6,11
2017/1/14 7:45,3.4,10,3.4,10,5.8,9
2017/1/14 7:46,3.4,10,3.5,10,5.2,10
2017/1/14 7:47,3.3,10,3.4,10,4.2,9
2017/1/14 7:48,3.3,10,3.3,10,4.5,11
2017/1/14 7:49,3.2,10,3.3,10,5,9
2017/1/14 7:50,3.3,10,3.3,10,5.6,10
2017/1/14 7:51,3.2,10,3.3,10,5.4,11
2017/1/14 7:52,3.3,10,3.3,10,4.9,9
2017/1/14 7:53,3.1,10,3.3,10,4.9,10
2017/1/14 7:54,3,10,3.1,10,5.1,11
2017/1/14 7:55,2.9,10,3,10,5.1,11
2017/1/14 7:56,2.9,10,2.9,10,5.1,10
2017/1/14 7:57,2.8,10,2.9,10,3.6,9
2017/1/14 7:58,2.7,10,2.8,10,4.4,10
2017/1/14 7:59,2.7,10,2.8,10,5.7,9
2017/1/14 8:00,2.6,10,2.8,10,4.7,9
2017/1/14 8:01,2.5,10,2.6,10,3.5,8
2017/1/14 8:02,2.4,10,2.5,10,3.9,10
2017/1/14 8:03,2.5,11,2.5,10,4.9,11
2017/1/14 8:04,2.4,10,2.5,10,3.9,10
2017/1/14 8:05,2.3,10,2.4,10,4.7,11
2017/1/14 8:06,2.3,10,2.4,10,5.1,9
2017/1/14 8:07,2.4,10,2.4,10,4.2,10
2017/1/14 8:08,2.4,10,2.4,10,4.5,8
2017/1/14 8:09,2.3,10,2.3,10,4.7,10
2017/1/14 8:10,2.4,10,2.4,10,4.7,10
2017/1/14 8:11,2.4,11,2.4,10,3.7,12
2017/1/14 8:12,2.6,11,2.6,10,5.7,12
2017/1/14 8:13,2.6,11,2.6,10,4.3,10
2017/1/14 8:14,2.5,11,2.6,10,2.9,10
2017/1/14 8:15,2.4,11,2.5,10,1.8,10
2017/1/14 8:16,2.2,11,2.3,10,2,10
2017/1/14 8:17,2.3,11,2.3,10,4.7,10
2017/1/14 8:18,2.2,11,2.2,10,3,10
2017/1/14 8:19,2.1,11,2.2,10,3.7,10
2017/1/14 8:20,2.1,11,2.1,10,4.9,10
2017/1/14 8:21,2.1,11,2.1,10,4.5,10
2017/1/14 8:22,2.1,10,2.1,11,7.4,9
2017/1/14 8:23,2.2,10,2.2,11,4.5,11
2017/1/14 8:24,2.2,10,2.2,11,4.5,10
2017/1/14 8:25,2.2,10,2.2,11,3,11
2017/1/14 8:26,2.4,10,2.4,10,4.5,9
2017/1/14 8:27,2.4,10,2.4,10,5.5,11
2017/1/14 8:28,2.4,10,2.4,10,3.7,11
2017/1/14 8:29,2.4,10,2.5,10,3.7,10
2017/1/14 8:30,2.3,10,2.4,10,3.2,13
2017/1/14 8:31,2.3,10,2.4,10,3,9
2017/1/14 8:32,2.1,10,2.3,10,3.9,10
2017/1/14 8:33,2,10,2.1,10,3.2,10
2017/1/14 8:34,2.1,10,2.1,10,5,10
2017/1/14 8:35,2.2,10,2.2,10,3.2,9
2017/1/14 8:36,2.1,10,2.1,10,4.2,11
2017/1/14 8:37,2.1,10,2.1,10,6.3,10
2017/1/14 8:38,2.1,10,2.2,10,4.2,10
2017/1/14 8:39,2.1,10,2.2,10,5.4,11
2017/1/14 8:40,2.3,10,2.3,10,5,10
2017/1/14 8:41,2.3,10,2.3,10,3.3,9
2017/1/14 8:42,2.3,10,2.3,10,3.9,10
2017/1/14 8:43,2.2,10,2.3,10,3,10
2017/1/14 8:44,2.2,10,2.2,10,4.5,10
2017/1/14 8:45,2.3,10,2.3,10,4.4,10
2017/1/14 8:46,2.4,10,2.4,10,3.8,9
2017/1/14 8:47,2.4,10,2.4,10,4.4,11
2017/1/14 8:48,2.5,10,2.5,10,4.5,10
2017/1/14 8:49,2.5,10,2.6,10,4.1,10
2017/1/14 8:50,2.5,10,2.5,10,6.1,10
2017/1/14 8:51,2.6,10,2.6,10,5.4,9
2017/1/14 8:52,2.8,10,2.8,10,3.8,11
2017/1/14 8:53,2.9,10,2.9,10,3.9,9
2017/1/14 8:54,2.8,10,2.9,10,3.9,9
2017/1/14 8:55,2.7,10,2.8,10,4.4,10
2017/1/14 8:56,2.8,10,2.8,10,3.7,10
2017/1/14 8:57,2.7,10,2.8,10,3.7,11
2017/1/14 8:58,2.4,10,2.7,10,2.1,8
2017/1/14 8:59,2.4,10,2.4,10,4.2,10
2017/1/14 9:00,2.3,10,2.4,10,3.7,10
2017/1/14 9:01,2.1,10,2.3,10,3.5,10
2017/1/14 9:02,2.1,10,2.2,10,4.5,9
2017/1/14 9:03,2,10,2.1,10,2.7,9
2017/1/14 9:04,2,10,2,10,3.2,11
2017/1/14 9:05,2,10,2,10,4.7,10
2017/1/14 9:06,2,10,2,10,3.6,11
2017/1/14 9:07,2,10,2,10,3.6,9
2017/1/14 9:08,2.1,10,2.1,10,3.1,9
2017/1/14 9:09,2,11,2.1,10,2,9
2017/1/14 9:10,1.8,11,1.9,10,1.4,11
2017/1/14 9:11,1.8,10,1.8,10,2.7,11
2017/1/14 9:12,1.7,10,1.8,10,3.5,10
2017/1/14 9:13,1.7,10,1.7,10,3.5,8
2017/1/14 9:14,1.6,11,1.7,10,2.5,9
2017/1/14 9:15,1.5,11,1.6,10,2.1,9
2017/1/14 9:16,1.4,11,1.5,10,3,9
2017/1/14 9:17,1.4,11,1.4,10,3.7,10
2017/1/14 9:18,1.4,11,1.4,10,2.5,12
2017/1/14 9:19,1.4,11,1.5,11,3.1,10
2017/1/14 9:20,1.5,11,1.5,11,2.6,12
2017/1/14 9:21,1.5,11,1.6,10,3.2,11
2017/1/14 9:22,1.5,11,1.5,10,3.6,9
2017/1/14 9:23,1.6,11,1.6,11,4.8,10
2017/1/14 9:24,1.7,11,1.7,11,3.9,11
2017/1/14 9:25,1.9,11,1.9,11,4.2,8
2017/1/14 9:26,2.1,11,2.1,11,5.2,11
2017/1/14 9:27,1.9,11,2.1,11,2.5,11
2017/1/14 9:28,2.1,11,2.1,11,4.7,11
2017/1/14 9:29,2.2,11,2.2,11,4.7,10
2017/1/14 9:30,2.3,11,2.3,11,5.4,10
2017/1/14 9:31,2.4,10,2.4,10,5.4,11
2017/1/14 9:32,2.7,10,2.7,10,5.2,10
2017/1/14 9:33,2.7,10,2.7,10,5.2,10
2017/1/14 9:34,2.8,10,2.8,10,5.8,10
2017/1/14 9:35,2.9,10,2.9,10,5.2,10
2017/1/14 9:36,2.7,10,2.9,10,3.6,11
2017/1/14 9:37,2.7,10,2.7,10,2.6,9
2017/1/14 9:38,2.7,10,2.8,10,4.4,10
2017/1/14 9:39,2.8,10,2.8,10,6.3,9
2017/1/14 9:40,2.9,10,2.9,10,7.5,9
2017/1/14 9:41,3.1,10,3.1,10,7.7,10
2017/1/14 9:42,3.2,10,3.2,10,9.5,10
2017/1/14 9:43,3.5,10,3.5,10,8.4,10
2017/1/14 9:44,3.6,10,3.6,10,7.2,9
2017/1/14 9:45,3.6,10,3.7,10,5.5,10
2017/1/14 9:46,3.8,10,3.8,10,6.4,10
2017/1/14 9:47,4,10,4,10,6.1,10
2017/1/14 9:48,4.2,10,4.2,10,5.8,10
2017/1/14 9:49,4.3,10,4.3,10,7.1,10
2017/1/14 9:50,4.3,10,4.3,10,7.9,10
2017/1/14 9:51,4.3,10,4.3,10,7.7,10
2017/1/14 9:52,4.3,10,4.3,10,8.5,9
2017/1/14 9:53,4.2,10,4.3,10,7.5,9
2017/1/14 9:54,4.1,10,4.2,10,6.1,10
2017/1/14 9:55,4.1,10,4.1,10,5.7,9
2017/1/14 9:56,4.1,10,4.2,10,5.2,10
2017/1/14 9:57,4.2,10,4.2,10,5.8,9
2017/1/14 9:58,4.2,10,4.2,10,5.7,9
2017/1/14 9:59,4,10,4.2,10,5.2,10
2017/1/14 10:00,3.9,10,4.1,10,5.6,10
2017/1/14 10:01,3.7,10,3.9,10,4.8,10
2017/1/14 10:02,3.5,10,3.7,10,4.5,10
2017/1/14 10:03,3.4,10,3.5,10,4.4,10
2017/1/14 10:04,3.3,10,3.4,10,5.2,10
2017/1/14 10:05,3.3,10,3.4,10,3.9,11
2017/1/14 10:06,3.1,10,3.2,10,3.6,10
2017/1/14 10:07,3,10,3.1,10,4.4,11
2017/1/14 10:08,2.9,10,3,10,4.7,9
2017/1/14 10:09,2.9,10,2.9,10,4.7,10
2017/1/14 10:10,3,10,3,10,5.2,11
2017/1/14 10:11,3,10,3,10,4.4,10
2017/1/14 10:12,3,10,3,10,4.3,10
2017/1/14 10:13,3,10,3,10,4.9,11
2017/1/14 10:14,2.9,10,3,10,4.2,10
2017/1/14 10:15,2.9,10,2.9,10,4.4,11
2017/1/14 10:16,3,10,3,10,4.4,10
2017/1/14 10:17,2.9,10,3,10,3.6,11
2017/1/14 10:18,3,10,3,10,4.8,11
2017/1/14 10:19,3,10,3,10,3.5,10
2017/1/14 10:20,2.9,10,3,10,4.4,10
2017/1/14 10:21,2.9,10,2.9,10,5.1,11
2017/1/14 10:22,2.8,11,2.9,10,3.9,10
2017/1/14 10:23,2.6,10,2.8,10,4.1,11
2017/1/14 10:24,2.6,11,2.6,10,3.9,10
2017/1/14 10:25,2.7,11,2.7,10,4.1,11
2017/1/14 10:26,2.7,11,2.7,10,5.2,11
2017/1/14 10:27,2.6,11,2.7,10,2.5,12
2017/1/14 10:28,2.4,11,2.5,10,4.3,10
2017/1/14 10:29,2.4,11,2.4,10,3.7,12
2017/1/14 10:30,2.4,11,2.5,10,3.6,10
2017/1/14 10:31,2.2,11,2.3,10,3.1,9
2017/1/14 10:32,2.2,11,2.2,11,4.9,11
2017/1/14 10:33,2.3,10,2.3,11,5.7,10
2017/1/14 10:34,2.4,11,2.4,11,7.8,12
2017/1/14 10:35,2.5,11,2.5,11,7,12
2017/1/14 10:36,2.6,11,2.6,11,7.5,10
2017/1/14 10:37,2.6,11,2.6,11,3.2,11
2017/1/14 10:38,2.8,11,2.8,11,7,8
2017/1/14 10:39,2.9,11,2.9,11,7,10
2017/1/14 10:40,3,11,3,11,7.6,12
2017/1/14 10:41,3.2,11,3.2,11,4.5,12
2017/1/14 10:42,3.3,11,3.3,11,4.3,14
2017/1/14 10:43,3.4,12,3.4,12,7.1,14
2017/1/14 10:44,3.4,12,3.5,12,9.3,13
2017/1/14 10:45,3.6,12,3.6,12,10.8,13
2017/1/14 10:46,3.8,12,3.8,12,11.5,13
2017/1/14 10:47,4.3,12,4.3,12,9.1,14
2017/1/14 10:48,4.4,12,4.5,12,9.5,14
2017/1/14 10:49,4.8,12,4.8,12,11.4,11
2017/1/14 10:50,5,12,5,12,12.8,10
2017/1/14 10:51,5.3,12,5.3,12,9,11
2017/1/14 10:52,5.4,12,5.4,12,6.7,12
2017/1/14 10:53,5.4,12,5.5,12,9.4,12
2017/1/14 10:54,5.5,12,5.5,12,8.3,12
2017/1/14 10:55,5.3,12,5.4,12,6.3,13
2017/1/14 10:56,4.8,12,5.3,12,7,10
2017/1/14 10:57,4.4,12,4.8,12,3.2,13